GALAXY 18 (G-18)

Last updated on Mon Nov 03 2025 00:02:55 GMT+0000 (Coordinated Universal Time)

1 32951U 08024A 25306.51163455 .00000037 00000+0 00000+0 0 9998 2 32951 0.0146 265.1819 0003051 312.1845 245.8740 1.00271778 43581
UTC large
Height (km)
Speed (km/s)
/
Latitude / Longitude
Inclination (degrees)
Orbital Period (minutes)
Azimuth
Elevation
Range (km)
Doppler Factor

Next 0 passes for location: London (51.5072 / 0.1276)

Sorry there are no passes over London.